Satellite-Ground Cal/Val Region Overpasses Predictions

Prediction of Satellite NPP Overpassing Cal/Val Region: PacNW

Region Location: (Latitude: 10.00, Longitude: 139.50) to (Latitude: 22.70, Longitude: 165.60).

Table of predicted overpasses for the next 14.0 days since TLE Epoch: 3/14/2015
Interval Starting Time Starting Location Ending Time Ending Location
1 03/14/2015 15:55:13 ( 22.65, 147.58) 03/14/2015 15:58:48 ( 10.03, 144.59)
2 03/15/2015 03:04:16 ( 10.00, 155.14) 03/15/2015 03:07:52 ( 22.69, 152.13)
3 03/15/2015 15:36:09 ( 22.68, 152.35) 03/15/2015 15:39:45 ( 10.00, 149.34)
4 03/16/2015 02:45:14 ( 10.03, 159.89) 03/16/2015 02:48:49 ( 22.65, 156.90)
5 03/16/2015 15:17:07 ( 22.66, 157.10) 03/16/2015 15:20:42 ( 10.04, 154.10)
6 03/17/2015 02:26:11 ( 10.06, 164.64) 03/17/2015 02:29:46 ( 22.68, 161.65)
7 03/17/2015 14:58:03 ( 22.69, 161.86) 03/17/2015 15:01:39 ( 10.01, 158.86)
8 03/18/2015 03:48:38 ( 10.04, 144.03) 03/18/2015 03:52:13 ( 22.66, 141.03)
9 03/18/2015 14:40:12 ( 18.50, 165.59) 03/18/2015 14:42:36 ( 10.04, 163.62)
10 03/18/2015 16:20:31 ( 22.65, 141.24) 03/18/2015 16:22:33 ( 15.49, 139.51)
11 03/19/2015 03:29:35 ( 10.01, 148.79) 03/19/2015 03:33:11 ( 22.69, 145.79)
12 03/19/2015 16:01:27 ( 22.68, 146.00) 03/19/2015 16:05:02 ( 10.06, 143.01)
13 03/20/2015 03:10:32 ( 10.04, 153.54) 03/20/2015 03:14:07 ( 22.67, 150.55)
14 03/20/2015 15:42:25 ( 22.65, 150.75) 03/20/2015 15:46:00 ( 10.03, 147.76)
15 03/21/2015 02:51:29 ( 10.01, 158.31) 03/21/2015 02:55:05 ( 22.70, 155.30)
16 03/21/2015 15:23:21 ( 22.67, 155.52) 03/21/2015 15:26:56 ( 10.05, 152.52)
17 03/22/2015 02:32:26 ( 10.05, 163.06) 03/22/2015 02:36:01 ( 22.67, 160.06)
18 03/22/2015 15:04:18 ( 22.70, 160.28) 03/22/2015 15:07:54 ( 10.02, 157.27)
19 03/23/2015 02:16:05 ( 19.54, 165.59) 03/23/2015 02:16:58 ( 22.65, 164.83)
20 03/23/2015 03:54:53 ( 10.03, 142.45) 03/23/2015 03:58:24 ( 22.43, 139.51)
21 03/23/2015 14:45:15 ( 22.67, 165.03) 03/23/2015 14:48:50 ( 10.05, 162.04)
22 03/23/2015 16:26:45 ( 22.65, 139.65) 03/23/2015 16:26:55 ( 22.07, 139.51)
23 03/24/2015 03:35:49 ( 10.01, 147.21) 03/24/2015 03:39:25 ( 22.70, 144.20)
24 03/24/2015 16:07:42 ( 22.68, 144.42) 03/24/2015 16:11:17 ( 10.06, 141.42)
25 03/25/2015 03:16:47 ( 10.05, 151.96) 03/25/2015 03:20:22 ( 22.67, 148.97)
26 03/25/2015 15:48:39 ( 22.64, 149.17) 03/25/2015 15:52:14 ( 10.02, 146.18)
27 03/26/2015 02:57:43 ( 10.03, 156.72) 03/26/2015 03:01:18 ( 22.65, 153.73)
28 03/26/2015 15:29:36 ( 22.66, 153.93) 03/26/2015 15:33:11 ( 10.04, 150.94)
29 03/27/2015 02:38:40 ( 10.01, 161.49) 03/27/2015 02:42:16 ( 22.69, 158.48)
30 03/27/2015 15:10:33 ( 22.69, 158.70) 03/27/2015 15:14:09 ( 10.01, 155.69)
31 03/28/2015 02:20:25 ( 12.87, 165.59) 03/28/2015 02:23:12 ( 22.67, 163.24)


NCC Satellite Cal/Val Overpasses Prediction Service
